Weather Roundup
Issued by NWS Springfield, MO

Home | Current Version | Previous Version | Text Only | Print | Product List | Glossary On
Versions: 1 2 3 4 5 6 7 8 9 10 11 12 13 14 15 16 17 18 19 20 21 22 23 24 25 26 27 28 29 30 31 32 33 34 35 36 37 38 39 40 41 42 43 44 45 46 47 48 49 50
000
NZUS99 KSGF 181707
HRRSGF

HOURLY WEATHER
NATIONAL WEATHER SERVICE SPRINGFIELD MO
1100 AM CST THU DEC 18 2014

......SGF CWA......

CITY           SKY/WX    TMP DP  RH WIND       PRES   REMARKS
SPRINGFIELD    CLOUDY    35  34  96 S8        30.19S WCI  29
JOPLIN         CLOUDY    38  36  92 CALM      30.21S FOG
WEST PLAINS    CLOUDY    34  32  92 SE6       30.23S FOG     WCI  29
ROLLA          LGT SNOW  31  29  92 E8        30.22F FOG     WCI  23
OSAGE BEACH    CLOUDY    34  30  86 E6        30.23F WCI  29
BRANSON        CLOUDY    37  36  93 SE8       30.20F WCI  31

......SURROUNDING SGF CWA......

CITY           SKY/WX    TMP DP  RH WIND       PRES   REMARKS
CHANUTE        CLOUDY    33  33 100 CALM      30.22R FOG
PARSONS        FOG       36  36 100 CALM      30.22S VSB 3/4
COFFEYVILLE    FOG       36  36 100 CALM      30.22R VSB 1/4
EMPORIA        CLOUDY    29  29 100 NE5       30.21S FOG     WCI  24
GROVE OK       CLOUDY    41  41 100 CALM      30.22S
ROGERS AR      CLOUDY    38  37  97 SW5       30.19F FOG     WCI  34
SILOAM SPRINGS CLOUDY    37  32  81 CALM      30.21S
HARRISON AR    CLOUDY    37  36  96 S7        30.19F WCI  32
NEAR YELLVILLE CLOUDY    37  30  75 E5        30.22F WCI  34

......KANSAS AND MISSOURI......

CITY           SKY/WX    TMP DP  RH WIND       PRES   REMARKS
KANSAS CTY INT LGT SNOW  31  27  85 E9        30.24S FOG     WCI  23
DOWNTOWN KC    CLOUDY    31  28  89 E8        30.25S FOG     WCI  23
COLUMBIA       CLOUDY    31  28  89 E9        30.25F FOG     WCI  23
SEDALIA        LGT SNOW  32  30  92 E8        30.25F FOG     WCI  25
ST JOSEPH      LGT SNOW  29  26  89 E5        30.27S FOG     WCI  24
ST LOUIS       LGT SNOW  32  27  80 NE5       30.29F WCI  27
SPIRIT OF STL  LGT SNOW  30  28  92 NE6       30.29F FOG     WCI  24
KIRKSVILLE     CLOUDY    27  25  92 E5        30.28F WCI  22
WICHITA        CLOUDY    33  30  88 N3        30.20S FOG
TOPEKA         CLOUDY    32  28  85 CALM      30.26R FOG
OLATHE         CLOUDY    32  29  88 E6        30.22S FOG     WCI  26

......TENNESSEE......

CITY           SKY/WX    TMP DP  RH WIND       PRES   REMARKS
MEMPHIS        CLOUDY    42  36  79 E3        30.25F
NASHVILLE      CLOUDY    36  32  85 N3        30.24F

......ARKANSAS.......

CITY           SKY/WX    TMP DP  RH WIND       PRES   REMARKS
FAYETTEVILLE   CLOUDY    39  37  92 S5        30.19S
FT SMITH       CLOUDY    39  36  89 E8        30.23S WCI  33
LITTLE ROCK    CLOUDY    40  37  89 E3        30.25F FOG

......OKLAHOMA.......

CITY           SKY/WX    TMP DP  RH WIND       PRES   REMARKS
TULSA          CLOUDY    40  38  93 CALM      30.21S FOG
PONCA CITY     CLOUDY    39  37  92 CALM      30.20R FOG
MCALESTER      CLOUDY    43  40  89 CALM      30.20S
OKLAHOMA CITY  DRIZZLE   42  38  85 CALM      30.17S FOG

......IOWA............

CITY           SKY/WX    TMP DP  RH WIND       PRES   REMARKS
DES MOINES     CLOUDY    27  18  69 CALM      30.29S
QUAD CITIES    CLOUDY    25  18  74 CALM      30.30F

......ILLINOIS........

CITY           SKY/WX    TMP DP  RH WIND       PRES   REMARKS
QUINCY         CLOUDY    28  23  81 CALM      30.29F
CHICAGO        CLOUDY    25  16  68 W7        30.28F WCI  17




USA.gov is the U.S. government's official web portal to all federal, state and local government web resources and services.